Location: *
(48.8667°N, 2.3331°E)
Time: 17:55:39
(UTC+00:00)

STARLINK-1246 - Pass Details

Date: 09 April 2020
Orbit: 549 x 550 km, 53.0° (Epoch: 26 May)

Event Time Altitude Azimuth Distance (km) Brightness Sun altitude
Rises 18:54:12 0° 288° (WNW) 2,729 10.5 -4.0°
Reaches altitude 10° 18:56:29 10° 293° (WNW) 1,835 8.2 -4.4°
Maximum altitude 19:00:34 52° 11° (N) 690 4.2 -5.0°
Drops below altitude 10° 19:04:39 10° 89° (E) 1,832 5.7 -5.7°
Enters shadow 19:05:29 - 91° (E) 2,154 6.0 -5.8°
